IRIDIUM 117

Last updated on Fri Sep 11 2026 00:03:06 GMT+0000 (Coordinated Universal Time)

1 42808U 17039F 26253.10132771 .00000161 00000+0 50549-4 0 9996 2 42808 86.3988 318.1173 0002286 92.9300 267.2158 14.34217660482145
UTC large
Height (km)
Speed (km/s)
/
Latitude / Longitude
Inclination (degrees)
Orbital Period (minutes)
Azimuth
Elevation
Range (km)
Doppler Factor

Next 0 passes for location: London (51.5072 / 0.1276)

No passes found over London.
IRIDIUM 117